Find Starlink 3877

NORAD ID: 52355 Int'l Des: 2022-045 Owner: SPXS Country: US Constellation: starlink operational
LEOCIRCULAR

Live Position

Loading 3D Globe...

About Starlink 3877

Description loading...

Upcoming Passes

Passes for default location (London). Set your location on the main map for personalized predictions.

Altitude History

Loading altitude history...

Two-Line Element Set

1 52355U 22045AA 26126.78146228 .00001074 00000-0 85543-4 0 9999
2 52355 53.2182 298.3363 0001266 90.0273 270.0865 15.08844071224557
Epoch: May 6, 2026 • Age: 12 hours

Current Status

Altitude 558.6 km
Velocity 7.58 km/s
Sub-Earth Point -51.90°S, 107.47°W
Launch Date Apr 29, 2022
Age 4 years
Type internet

Technical Details

Classification Payload
Mass 297.00 kg
Dry Mass 275.00 kg
Total Mass 297.00 kg
Length 0.20 m
Diameter 2.80 m
Span 9.00 m
Shape Box + pan
Manufacturer SPXS
Bus Type Starlink
Phase Status In Orbit
Owner/State SPXS/US

Most Searched